Theta_e
326 326 327 328 328 325 325 322 326 327 327 328 329 329 333 339 338 338 339 340 341 343 344 344 343 342 343 344 344 345 345 345
321 325 326 326 324 328 323 332 332 329 329 331 330 330 336 339 338 337 338 340 340 341 344 345 345 344 344 343 344 345 345 346
319 325 324 321 326 324 322 322 329 330 330 325 329 328 329 335 336 336 337 339 339 339 342 345 345 346 346 345 346 347 346 347
320 319 317 321 323 320 322 324 322 324 328 326 327 326 325 332 333 334 337 337 338 338 339 342 344 345 347 347 348 348 348 349
317 317 319 319 319 321 317 317 323 326 326 323 323 324 323 325 328 333 334 335 335 334 336 340 343 344 345 348 348 349 350 350
317 319 319 320 321 321 318 319 320 322 326 323 322 323 323 322 323 325 333 335 335 334 335 338 341 343 343 346 349 350 351 352
318 320 320 319 319 320 321 319 322 321 322 322 321 322 323 322 324 330 333 332 333 334 334 336 339 341 341 344 348 350 352 353
324 323 322 324 323 322 321 322 318 319 319 319 320 319 320 321 324 326 329 331 332 334 334 333 336 338 340 342 346 350 352 353
324 322 323 325 323 322 321 320 320 325 322 324 330 331 329 328 325 325 326 327 330 332 334 335 335 337 338 340 345 350 352 353
321 323 329 323 321 324 325 325 331 332 336 337 338 337 336 333 324 321 325 327 327 331 333 335 336 336 338 341 346 351 353 354
323 323 324 325 325 326 326 329 335 339 339 338 336 335 331 326 329 335 337 336 329 328 332 336 338 339 341 347 350 352 353 354
319 324 327 324 326 329 324 325 335 337 337 333 333 335 334 332 333 336 339 340 333 328 340 342 341 343 347 350 351 352 352 353
319 324 322 324 325 326 326 327 335 331 330 331 333 333 332 333 336 339 343 343 332 335 346 347 348 347 350 351 352 351 352 354
319 323 326 324 324 327 323 327 332 328 330 334 335 337 339 340 341 345 349 342 343 352 354 353 351 350 351 351 353 353 353 353
321 321 322 322 323 321 320 328 329 330 334 337 339 339 343 344 350 351 346 347 353 355 354 353 352 353 353 351 350 351 351 348
325 321 321 322 321 321 324 328 328 328 335 337 336 337 346 351 347 350 352 356 356 355 354 351 350 350 348 349 349 349 344 343
322 321 321 321 321 320 321 325 327 327 336 336 336 339 348 347 349 353 351 353 356 353 348 345 343 341 342 343 345 342 341 339
322 319 319 319 319 320 323 325 326 336 336 335 336 343 346 346 343 344 345 344 343 340 336 335 335 337 339 340 340 338 338 337
321 319 319 319 320 322 324 327 334 337 335 337 339 344 343 341 338 338 340 340 338 336 334 332 333 334 335 336 335 336 337 335
Wind_Speed
6 7 8 3 3 4 5 3 2 4 8 10 4 4 2 10 8 14 15 14 15 16 24 26 28 32 36 35 35 37 41 39
5 0 1 5 6 2 2 2 5 4 5 7 11 12 2 7 10 11 15 15 15 13 21 28 31 33 35 39 40 43 40 40
3 2 2 4 2 3 5 5 6 3 6 7 7 8 9 7 9 11 12 16 17 13 23 31 31 28 36 36 37 35 37 39
8 6 4 3 3 4 5 4 3 5 7 6 9 7 7 10 9 11 16 17 17 14 19 24 29 31 33 36 34 39 41 37
10 6 6 6 3 3 3 2 5 5 6 1 6 9 7 10 12 9 12 12 12 9 12 20 28 30 32 33 37 37 35 36
7 5 2 5 3 4 3 1 2 5 4 10 9 9 12 9 11 10 10 15 15 11 14 21 28 29 29 30 35 33 36 35
4 7 4 6 9 7 7 7 5 5 7 12 6 9 10 8 9 7 7 8 12 14 13 14 20 27 29 32 35 38 36 32
4 9 7 7 11 9 9 7 8 8 9 5 8 8 9 15 7 8 9 10 12 12 9 10 21 27 29 32 36 35 31 30
5 4 7 10 10 9 6 6 5 5 2 10 15 16 15 18 16 11 10 11 14 15 17 19 27 29 30 30 30 31 31 32
5 2 8 7 3 6 7 2 6 6 8 7 11 20 22 14 12 10 12 16 11 13 13 24 22 26 31 33 36 34 34 33
5 8 10 15 13 4 3 2 4 5 8 10 15 14 10 6 4 15 15 18 17 22 22 20 28 33 29 27 28 30 29 34
3 6 8 4 4 3 1 4 4 4 6 14 15 10 10 19 30 29 22 19 21 22 18 24 28 33 31 27 29 28 30 33
5 5 7 4 8 6 5 4 7 6 6 8 7 7 22 27 28 25 26 24 28 23 21 23 28 33 27 28 27 29 33 33
3 4 9 3 4 2 2 2 5 10 8 12 15 20 18 20 23 24 26 24 11 11 13 21 26 28 25 23 26 33 33 34
7 5 4 2 3 5 3 3 2 9 12 11 15 19 22 20 22 22 20 10 10 11 14 17 21 25 25 23 30 33 31 30
4 1 5 6 6 4 1 3 7 11 14 14 16 18 25 14 15 12 6 1 7 15 15 16 23 25 34 37 39 39 33 34
8 6 9 10 4 7 10 8 10 13 11 14 16 18 14 10 9 8 5 7 11 13 15 19 29 26 27 34 38 34 33 32
14 9 8 8 9 10 11 13 13 10 15 17 15 15 6 3 3 4 4 10 14 20 22 21 26 32 31 31 34 33 26 23
15 18 16 12 13 15 12 12 10 8 12 15 16 8 3 2 3 11 12 18 17 20 23 24 25 32 25 27 25 25 29 25
Wind_Direction
196 225 144 206 189 196 109 24 42 242 287 300 264 278 279 205 195 191 201 197 198 197 198 197 199 200 206 211 215 220 223 223
299 0 235 161 170 85 12 221 268 284 285 248 310 297 239 207 201 199 198 199 212 190 195 200 203 203 205 212 217 222 222 224
344 195 159 350 263 55 126 148 178 233 265 225 258 283 297 255 206 186 198 200 211 198 196 199 202 199 204 206 212 213 220 223
239 279 311 182 207 158 139 249 207 162 263 271 254 297 298 287 232 217 201 202 206 197 192 191 194 197 200 205 205 214 220 219
343 357 3 54 326 95 113 75 206 149 270 197 292 305 271 261 267 215 204 200 204 195 189 189 197 197 199 201 207 211 210 215
208 228 209 295 268 320 121 125 226 222 267 305 317 326 324 305 274 264 202 200 199 200 200 197 198 198 198 200 207 203 208 208
253 266 226 240 254 241 230 216 198 261 209 273 336 306 292 291 298 269 222 203 201 202 207 199 194 197 197 201 201 203 202 200
284 294 283 265 258 237 229 258 245 236 274 242 303 306 319 322 310 268 254 218 238 215 205 206 194 195 192 195 200 197 193 195
248 244 303 300 257 207 205 213 210 218 286 355 341 334 320 308 302 298 284 245 221 220 204 206 202 188 192 191 190 189 191 198
220 31 248 245 233 210 213 6 31 31 5 341 323 305 289 283 263 297 318 309 257 236 230 213 202 191 185 185 190 186 184 193
198 201 272 285 288 186 175 181 357 350 346 336 329 312 300 115 24 323 314 304 293 254 239 192 183 181 175 171 174 174 181 185
141 184 218 230 258 313 271 213 3 35 346 340 346 348 287 331 321 318 313 292 285 273 192 175 174 171 159 163 171 176 178 181
189 225 278 274 295 280 212 273 322 5 346 324 307 263 288 302 303 303 292 302 281 224 192 182 168 162 158 162 177 172 174 178
156 203 258 249 29 64 286 150 310 331 317 303 298 295 289 293 295 298 302 309 235 179 157 152 159 156 154 160 156 158 165 164
191 215 195 130 143 251 265 182 228 290 296 300 300 303 303 304 305 308 302 278 178 159 131 140 152 154 135 135 139 142 139 137
323 198 181 266 296 219 42 274 294 302 299 306 303 305 304 299 290 299 296 263 134 129 118 107 115 125 134 144 146 143 130 126
264 298 308 292 269 312 315 295 299 304 296 289 296 301 298 294 301 320 27 89 124 113 109 109 116 119 130 137 139 124 125 129
255 238 233 264 287 288 292 296 303 303 311 296 294 292 280 315 351 15 41 83 100 108 108 99 100 105 120 126 124 118 106 107
246 251 255 263 272 270 274 278 276 293 301 299 292 267 308 97 56 106 119 123 123 121 107 99 95 92 98 103 105 114 117 118